Location: Unspecified
(0.0000°N, 0.0000°E)
Time: 08:49:56
(UTC+00:00)

Amateur Radio Satellites - All Passes

Search period start: 23 May 2017 08:19
Search period end: 24 May 2017 08:19
Location: Unspecified, 0.0000°N, 0.0000°E

Satellite Date Start Highest point End Downlink Frequencies (MHz)
Time Altitude Azimuth
SO-50 23 May 08:37:59 08:41:50 27° 68° (ENE) 08:45:43 436.795
JUGNU 23 May 08:39:19 08:43:20 18° 14° (NNE) 08:47:19 437.505
M-CUBED/EXP-1 PRIME 23 May 08:40:32 08:44:21 25° 254° (WSW) 08:48:04 437.505
EO-88 23 May 08:48:08 08:50:26 16° 101° (ESE) 08:52:44 145.990 - 145.960
Oscar 11 23 May 08:48:09 08:52:20 50° 282° (WNW) 08:56:31 .
HO-68 23 May 08:52:47 08:54:14 11° 286° (WNW) 08:55:40 435.675
AO-73 23 May 09:10:38 09:13:57 20° 282° (WNW) 09:17:16 145.935
DELFI C3 23 May 09:15:51 09:19:44 77° 100° (E) 09:23:39 145.870
FO-29 23 May 09:21:01 09:26:25 42° 78° (ENE) 09:31:22 435.910
ZACube-1 23 May 09:23:33 09:25:24 12° 282° (WNW) 09:27:14 437.345
TIGRISAT 23 May 09:28:42 09:32:49 48° 78° (ENE) 09:36:54 435.000
PRISM 23 May 09:46:17 09:50:20 50° 258° (WSW) 09:54:21 437.425
UNISAT 6 23 May 09:59:07 10:03:16 50° 258° (WSW) 10:07:22 437.425
AIST 2D 23 May 10:10:15 10:11:20 11° 79° (E) 10:12:25 435.315
SO-50 23 May 10:19:36 10:22:03 14° 247° (WSW) 10:24:32 436.795
EO-88 23 May 10:21:59 10:23:51 13° 281° (WNW) 10:25:43 145.990 - 145.960
JUGNU 23 May 10:27:09 10:32:45 42° 20° (NNE) 10:38:19 437.505
POLYITAN 1 23 May 10:33:14 10:34:55 12° 78° (ENE) 10:36:35 437.675
NANOSAT C BR1 23 May 10:33:40 10:34:18 10° 78° (ENE) 10:34:56 145.865
QB50P2 23 May 10:40:26 10:43:19 18° 78° (ENE) 10:46:11 145.880/145.840
DUCHIFAT 1 23 May 10:45:06 10:47:17 14° 78° (ENE) 10:49:27 145.980
SRMSAT 23 May 10:59:35 11:03:02 16° 13° (NNE) 11:06:28 437.500
FO-29 23 May 11:09:07 11:11:04 12° 254° (WSW) 11:12:57 435.910
RS-15 23 May 11:11:39 11:18:52 18° 66° (ENE) 11:25:50 29.354- 29.394
VELOX 1 23 May 11:16:04 11:19:01 18° 102° (ESE) 11:21:59 145.980
LO-87 23 May 11:17:34 11:20:25 23° 281° (W) 11:23:18 145.935 - 145.965
EO-79 23 May 11:17:47 11:21:55 60° 78° (ENE) 11:26:01 145.935-145.965
ESTCUBE 1 23 May 11:37:55 11:42:00 35° 282° (WNW) 11:46:06 437.505/2401.250
SPROUT 23 May 11:39:51 11:43:50 39° 102° (ESE) 11:47:53 437.525
AIST 2D 23 May 11:42:01 11:44:17 16° 259° (W) 11:46:33 435.315
DX 1 23 May 12:04:20 12:07:42 22° 103° (ESE) 12:11:05 434.975-435.025
UKube-1 23 May 12:06:04 12:08:18 14° 103° (ESE) 12:10:33 .
NANOSAT C BR1 23 May 12:06:09 12:09:45 28° 258° (WSW) 12:13:20 145.865
POLYITAN 1 23 May 12:07:00 12:10:26 24° 258° (WSW) 12:13:50 437.675
JUGNU 23 May 12:15:54 12:21:49 71° 202° (SSW) 12:27:43 437.505
QB50P2 23 May 12:16:07 12:18:50 17° 258° (WSW) 12:21:32 145.880/145.840
DUCHIFAT 1 23 May 12:19:30 12:22:41 21° 258° (WSW) 12:25:50 145.980
Gurwin Techsat 1B 23 May 12:34:30 12:37:40 16° 77° (ENE) 12:40:50 435.225
YUBILEINY 23 May 12:40:24 12:49:14 83° 86° (E) 12:58:05 435.215
SRMSAT 23 May 12:47:22 12:52:42 35° 20° (NNE) 12:58:01 437.500
VELOX 1 23 May 12:52:06 12:55:12 19° 282° (WNW) 12:58:19 145.980
BUGSAT 1 23 May 12:53:26 12:57:00 29° 258° (WSW) 13:00:31 437.445
50 SAT 23 May 13:01:04 13:03:34 19° 281° (WNW) 13:06:05 437.505
RS-15 23 May 13:19:36 13:31:06 71° 250° (WSW) 13:42:05 29.354- 29.394
Oscar 19 23 May 13:26:29 13:31:35 58° 258° (WSW) 13:36:40 437.125/150
UKube-1 23 May 13:40:39 13:44:03 23° 282° (WNW) 13:47:29 .
DX 1 23 May 13:41:11 13:43:37 15° 282° (WNW) 13:46:03 434.975-435.025
JUGNU 23 May 14:06:04 14:10:59 27° 198° (SSW) 14:15:54 437.505
Gurwin Techsat 1B 23 May 14:12:38 14:17:20 32° 257° (WSW) 14:22:01 435.225
AO-85 23 May 14:17:49 14:19:11 11° 70° (ENE) 14:20:36 145.980
ITUPSAT 1 23 May 14:19:26 14:24:00 44° 103° (ESE) 14:28:34 437.325
ITAMSAT 1 23 May 14:20:30 14:24:41 25° 77° (ENE) 14:28:50 435.822/435.867
SRMSAT 23 May 14:36:00 14:41:56 86° 202° (SSW) 14:47:53 437.500
BEESAT 23 May 14:55:28 15:00:09 59° 282° (WNW) 15:04:52 436.000
O/OREOS (USA 219) 23 May 15:09:26 15:13:53 76° 255° (WSW) 15:18:20 437.305
MOZHAYETS 4 23 May 15:11:52 15:16:30 76° 281° (W) 15:21:07
AO-7 23 May 15:19:19 15:27:38 87° 256° (WSW) 15:35:55 .
CUBESAT XI-V 23 May 15:47:59 15:52:08 34° 102° (ESE) 15:56:16 437.345
AO-85 23 May 15:55:11 15:59:16 34° 247° (WSW) 16:03:39 145.980
JUGNU 23 May 15:58:02 16:00:38 13° 190° (S) 16:03:14 437.505
ITAMSAT 1 23 May 16:00:09 16:03:51 20° 257° (WSW) 16:07:33 435.822/435.867
BEESAT 3 23 May 16:04:41 16:08:34 67° 68° (ENE) 16:12:24 437.485
SRMSAT 23 May 16:25:59 16:31:13 32° 199° (SSW) 16:36:27 437.500
DOVE 4 23 May 16:26:40 16:29:16 14° 80° (E) 16:31:47 437.250
KKS-1 23 May 16:32:48 16:37:11 65° 282° (WNW) 16:41:37 437.445
PCSat 23 May 16:53:07 16:55:06 12° 110° (ESE) 16:57:06 145.827
XW-2D 23 May 17:06:04 17:08:36 17° 79° (ENE) 17:11:07 145.860 - 145.880
BEESAT 2 23 May 17:13:22 17:17:09 43° 248° (WSW) 17:20:54 435.950
XW-2B 23 May 17:13:30 17:16:25 22° 79° (ENE) 17:19:21 145.730 - 145.750
STARS 23 May 17:14:30 17:18:45 50° 282° (WNW) 17:23:03 437.465
XW-2C 23 May 17:26:25 17:29:52 35° 79° (E) 17:33:20 145.795 - 145.815
Tancredo 1 23 May 17:27:13 17:29:15 16° 126° (SE) 17:31:16 437.200
CUTE-I 23 May 17:27:14 17:32:03 35° 77° (ENE) 17:36:49 437.470
CUBESAT XI-V 23 May 17:28:05 17:29:13 11° 282° (WNW) 17:30:22 437.345
XW-2F 23 May 17:28:18 17:31:45 36° 79° (E) 17:35:13 145.980 - 146.000
NUDT-PHONESAT 23 May 17:39:00 17:42:28 40° 79° (ENE) 17:45:56 437.300
KAITUO 1B 23 May 17:42:07 17:45:43 47° 79° (ENE) 17:49:18 145.475/437.950
LilacSat-2 23 May 17:59:59 18:03:41 54° 259° (WSW) 18:07:24 437.200
DOVE 4 23 May 18:02:08 18:06:43 33° 257° (WSW) 18:11:04 437.250
CUTE 1.7 + AOD 2 23 May 18:17:07 18:19:46 16° 78° (ENE) 18:22:26 437.475
SRMSAT 23 May 18:17:41 18:20:56 15° 192° (SSW) 18:24:13 437.500
NO-84 23 May 18:18:03 18:20:16 19° 57° (ENE) 18:22:26 435.350 FM
PCSat 23 May 18:33:10 18:38:15 43° 289° (WNW) 18:43:20 145.827
XW-2D 23 May 18:40:39 18:42:31 13° 259° (WSW) 18:44:22 145.860 - 145.880
XW-2B 23 May 18:49:37 18:50:21 10° 259° (WSW) 18:51:03 145.730 - 145.750
HO-68 23 May 18:51:27 18:58:30 61° 76° (ENE) 19:05:31 435.675
STRAND 1 23 May 18:54:57 19:00:03 65° 102° (ESE) 19:05:10 437.568
ISS 23 May 18:57:59 19:00:56 31° 305° (NW) 19:03:54 437.550
Tancredo 1 23 May 19:03:24 19:04:48 12° 306° (NW) 19:06:12 437.200
XW-2A 23 May 19:07:07 19:10:27 90° 105° (ESE) 19:13:45 145.665 - 145.685
CUTE-I 23 May 19:08:54 19:11:47 15° 257° (WSW) 19:14:41 437.470
SEEDS 23 May 19:11:56 19:16:06 60° 79° (ENE) 19:20:16 437.485
JUGNU 23 May 19:38:12 19:40:53 13° 169° (S) 19:43:35 437.505
AO-73 23 May 19:44:05 19:47:20 22° 78° (ENE) 19:50:34 145.935
CUBEBUG 2 23 May 19:51:44 19:55:48 50° 258° (WSW) 19:59:48 437.445
CUTE 1.7 + AOD 2 23 May 19:52:15 19:55:20 19° 258° (WSW) 19:58:24 437.475
ZACube-1 23 May 19:55:16 19:59:07 38° 78° (ENE) 20:02:58 437.345
UWE-3 23 May 20:09:41 20:13:45 55° 259° (W) 20:17:47 435.000/436.395/437.385
AAUSAT CUBESAT 2 23 May 20:23:02 20:26:43 30° 259° (WSW) 20:30:24 437.432
UNISAT 6 23 May 20:38:30 20:39:53 11° 103° (ESE) 20:41:15 437.425
EO-88 23 May 20:39:20 20:40:15 11° 79° (ENE) 20:41:10 145.990 - 145.960
M-CUBED/EXP-1 PRIME 23 May 20:40:39 20:42:57 18° 284° (WNW) 20:45:19 437.505
HO-68 23 May 20:42:36 20:45:50 14° 255° (WSW) 20:49:05 435.675
SO-50 23 May 20:50:06 20:54:40 52° 112° (ESE) 20:59:10 436.795
FO-29 23 May 20:51:34 20:57:39 29° 105° (ESE) 21:04:05 435.910
Oscar 11 23 May 20:57:00 21:00:59 37° 258° (WSW) 21:04:58 .
DELFI C3 23 May 21:14:00 21:18:00 73° 78° (ENE) 21:21:59 145.870
AO-73 23 May 21:21:30 21:23:19 13° 258° (WSW) 21:25:07 145.935
JUGNU 23 May 21:25:34 21:30:30 28° 162° (SSE) 21:35:29 437.505
TIGRISAT 23 May 21:40:59 21:45:39 79° 103° (ESE) 21:50:22 435.000
PRISM 23 May 21:48:53 21:52:45 45° 282° (WNW) 21:56:39 437.425
SRMSAT 23 May 21:59:11 22:01:34 12° 171° (S) 22:03:57 437.500
EO-88 23 May 22:11:00 22:13:39 19° 259° (WSW) 22:16:19 145.990 - 145.960
UNISAT 6 23 May 22:12:01 22:16:17 35° 281° (WNW) 22:20:34 437.425
ESTCUBE 1 23 May 22:16:46 22:19:30 16° 78° (ENE) 22:22:14 437.505/2401.250
FO-29 23 May 22:35:54 22:42:14 35° 282° (WNW) 22:49:06 435.910
NANOSAT C BR1 23 May 22:37:50 22:39:49 13° 102° (ESE) 22:41:50 145.865
POLYITAN 1 23 May 22:38:25 22:41:00 16° 102° (ESE) 22:43:34 437.675
QB50P2 23 May 22:46:04 22:49:25 23° 102° (ESE) 22:52:47 145.880/145.840
DUCHIFAT 1 23 May 22:49:41 22:52:28 17° 102° (ESE) 22:55:16 145.980
RS-15 23 May 22:54:23 22:59:50 14° 112° (ESE) 23:05:20 29.354- 29.394
LO-87 23 May 23:05:08 23:08:28 36° 259° (WSW) 23:11:45 145.935 - 145.965
JUGNU 23 May 23:13:47 23:19:40 74° 158° (SSE) 23:25:36 437.505
YUBILEINY 23 May 23:20:50 23:26:21 18° 93° (E) 23:31:51 435.215
EO-79 23 May 23:23:32 23:27:47 75° 102° (ESE) 23:32:04 145.935-145.965
BUGSAT 1 23 May 23:23:39 23:24:41 11° 103° (ESE) 23:25:44 437.445
VELOX 1 23 May 23:26:52 23:30:33 26° 78° (ENE) 23:34:14 145.980
AIST 2D 23 May 23:27:09 23:30:14 28° 281° (W) 23:33:20 435.315
SRMSAT 23 May 23:46:42 23:51:29 24° 163° (SSE) 23:56:17 437.500
SPROUT 23 May 23:46:52 23:51:00 50° 78° (ENE) 23:55:06 437.525
ESTCUBE 1 23 May 23:52:26 23:56:01 23° 258° (WSW) 23:59:37 437.505/2401.250
NANOSAT C BR1 24 May 00:11:48 00:15:15 24° 282° (WNW) 00:18:43 145.865
POLYITAN 1 24 May 00:13:17 00:16:30 21° 282° (WNW) 00:19:43 437.675
DX 1 24 May 00:13:29 00:17:20 30° 78° (ENE) 00:21:09 434.975-435.025
UKube-1 24 May 00:13:43 00:16:43 18° 78° (ENE) 00:19:42 .
Oscar 19 24 May 00:22:17 00:26:10 22° 103° (ESE) 00:30:03 437.125/150
QB50P2 24 May 00:22:39 00:24:56 14° 282° (WNW) 00:27:13 145.880/145.840
DUCHIFAT 1 24 May 00:24:54 00:27:52 19° 282° (WNW) 00:30:50 145.980
50 SAT 24 May 00:44:11 00:47:26 38° 259° (WSW) 00:50:41 437.505
BUGSAT 1 24 May 00:56:09 00:59:44 28° 282° (WNW) 01:03:23 437.445
RS-15 24 May 01:00:20 01:11:54 84° 290° (WNW) 01:24:03 29.354- 29.394
JUGNU 24 May 01:03:13 01:08:45 40° 340° (NNW) 01:14:18 437.505
VELOX 1 24 May 01:04:31 01:06:43 14° 257° (WSW) 01:08:55 145.980
Gurwin Techsat 1B 24 May 01:11:00 01:16:03 46° 102° (ESE) 01:21:08 435.225
YUBILEINY 24 May 01:14:23 01:22:45 53° 273° (W) 01:31:08 435.215
SRMSAT 24 May 01:34:58 01:40:55 61° 159° (SSE) 01:46:51 437.500
BEESAT 24 May 01:42:11 01:44:31 14° 77° (ENE) 01:46:51 436.000
UKube-1 24 May 01:49:31 01:52:28 18° 257° (WSW) 01:55:25 .
DX 1 24 May 01:52:06 01:53:14 11° 257° (WSW) 01:54:21 434.975-435.025
AO-7 24 May 01:56:06 02:01:34 19° 107° (ESE) 02:07:02 .
Oscar 19 24 May 02:01:19 02:05:12 22° 283° (WNW) 02:09:07 437.125/150
AO-85 24 May 02:29:01 02:32:42 22° 114° (ESE) 02:36:10 145.980
ITUPSAT 1 24 May 02:41:30 02:46:15 87° 78° (ENE) 02:51:01 437.325
JUGNU 24 May 02:54:18 02:58:11 18° 346° (NNW) 03:02:05 437.505
ITAMSAT 1 24 May 02:54:22 02:59:32 67° 103° (ESE) 03:04:44 435.822/435.867
Gurwin Techsat 1B 24 May 02:54:30 02:55:42 11° 283° (WNW) 02:56:55 435.225
BEESAT 24 May 03:17:53 03:22:01 30° 257° (WSW) 03:26:08 436.000
O/OREOS (USA 219) 24 May 03:20:32 03:24:53 43° 284° (WNW) 03:29:14 437.305
RS-15 24 May 03:21:38 03:24:32 11° 295° (WNW) 03:27:28 29.354- 29.394
SRMSAT 24 May 03:24:21 03:30:09 49° 339° (NNW) 03:35:56 437.500
MOZHAYETS 4 24 May 03:28:48 03:33:07 43° 258° (WSW) 03:37:27
AO-7 24 May 03:45:49 03:53:54 56° 286° (WNW) 04:02:04 .
BEESAT 3 24 May 03:56:15 04:00:03 67° 112° (ESE) 04:03:55 437.485
CUBESAT XI-V 24 May 04:05:43 04:10:21 62° 78° (ENE) 04:14:59 437.345
AO-85 24 May 04:09:46 04:12:50 18° 290° (WNW) 04:15:47 145.980
KKS-1 24 May 04:45:28 04:49:41 43° 258° (WSW) 04:53:53 437.445
DOVE 4 24 May 04:45:37 04:48:58 22° 103° (ESE) 04:52:28 437.250
JUGNU 24 May 04:47:10 04:48:10 10° 355° (N) 04:49:11 437.505
XW-2D 24 May 05:00:09 05:02:12 14° 101° (ESE) 05:04:16 145.860 - 145.880
BEESAT 2 24 May 05:06:19 05:09:58 40° 292° (WNW) 05:13:40 435.950
XW-2B 24 May 05:07:27 05:10:03 18° 101° (ESE) 05:12:39 145.730 - 145.750
SRMSAT 24 May 05:15:20 05:19:40 20° 344° (NNW) 05:23:59 437.500
XW-2C 24 May 05:20:12 05:23:32 29° 101° (ESE) 05:26:50 145.795 - 145.815
XW-2F 24 May 05:21:40 05:24:58 28° 101° (ESE) 05:28:16 145.980 - 146.000
STARS 24 May 05:25:37 05:29:36 34° 258° (WSW) 05:33:35 437.465
PCSat 24 May 05:26:18 05:31:17 38° 71° (ENE) 05:36:15 145.827
NUDT-PHONESAT 24 May 05:30:36 05:33:54 29° 101° (ESE) 05:37:11 437.300
KAITUO 1B 24 May 05:34:30 05:37:57 35° 101° (E) 05:41:24 145.475/437.950
LilacSat-2 24 May 05:54:11 05:58:00 68° 281° (W) 06:01:49 437.200
NO-84 24 May 06:00:19 06:03:50 25° 121° (ESE) 06:07:28 435.350 FM
CUTE-I 24 May 06:05:53 06:11:13 79° 282° (WNW) 06:16:36 437.470
CUTE 1.7 + AOD 2 24 May 06:22:56 06:26:00 20° 102° (ESE) 06:29:04 437.475
DOVE 4 24 May 06:23:52 06:26:26 15° 280° (W) 06:29:05 437.250
CUBEBUG 2 24 May 06:30:24 06:31:33 11° 102° (ESE) 06:32:42 437.445
Tancredo 1 24 May 06:31:00 06:33:31 24° 234° (SW) 06:36:03 437.200
ISS 24 May 06:31:45 06:34:55 52° 235° (SW) 06:38:06 437.550
XW-2D 24 May 06:33:36 06:36:07 17° 281° (WNW) 06:38:39 145.860 - 145.880
JUGNU 24 May 06:36:50 06:38:24 11° 6° (N) 06:39:59 437.505
XW-2B 24 May 06:42:01 06:43:58 14° 281° (WNW) 06:45:54 145.730 - 145.750
HO-68 24 May 06:43:08 06:50:02 51° 104° (ESE) 06:56:56 435.675
XW-2A 24 May 06:49:44 06:52:59 41° 101° (E) 06:56:15 145.665 - 145.685
AAUSAT CUBESAT 2 24 May 06:54:09 06:54:52 10° 102° (ESE) 06:55:36 437.432
M-CUBED/EXP-1 PRIME 24 May 07:05:43 07:08:15 15° 75° (ENE) 07:10:44 437.505
SRMSAT 24 May 07:08:06 07:09:42 11° 353° (N) 07:11:17 437.500
PCSat 24 May 07:11:44 07:14:25 14° 250° (WSW) 07:17:05 145.827
SEEDS 24 May 07:17:03 07:21:12 72° 101° (ESE) 07:25:22 437.485
STRAND 1 24 May 07:27:48 07:32:42 49° 257° (WSW) 07:37:35 437.568
Oscar 11 24 May 07:32:16 07:33:45 12° 102° (ESE) 07:35:14 .
NO-84 24 May 07:38:21 07:41:16 18° 303° (WNW) 07:44:14 435.350 FM
AO-73 24 May 07:52:35 07:56:43 34° 102° (ESE) 08:00:50 145.935
CUTE 1.7 + AOD 2 24 May 07:59:00 08:01:34 16° 281° (WNW) 08:04:06 437.475
CUBEBUG 2 24 May 08:03:30 08:07:50 37° 281° (WNW) 08:12:14 437.445
ZACube-1 24 May 08:04:20 08:08:49 58° 101° (ESE) 08:13:19 437.345
